This is the latest recevied weather packets stored in our database for station/object KD5FHA. If no packets are shown the sender has not sent any weather packets the latest 10 day(s).
| Time | Temp. | Humidity | Pressure | Rain* | Wind** | Luminosity | Snow |
|---|---|---|---|---|---|---|---|
| 1777841082 | 27.78° C | 35% | 1018.5 hPa | 0 mm | - | 794 W/m² | - |
| 1777840779 | 27.22° C | 35% | 1018.7 hPa | 0 mm | - | 818 W/m² | - |
| 1777840477 | 27.78° C | 34% | 1018.8 hPa | 0 mm | - | 823 W/m² | - |
| 1777840173 | 27.22° C | 35% | 1018.9 hPa | 0 mm | - | 833 W/m² | - |
| 1777839871 | 26.67° C | 36% | 1018.9 hPa | 0 mm | - | 837 W/m² | - |
| 1777839570 | 27.22° C | 35% | 1019.1 hPa | 0 mm | - | 847 W/m² | - |
| 1777839266 | 27.22° C | 32% | 1019.2 hPa | 0 mm | - | 855 W/m² | - |
| 1777838964 | 26.67° C | 35% | 1019.2 hPa | 0 mm | - | 866 W/m² | - |
| 1777838660 | 27.22° C | 34% | 1019.3 hPa | 0 mm | - | 873 W/m² | - |
| 1777838357 | 26.67° C | 34% | 1019.3 hPa | 0 mm | - | 881 W/m² | - |
| 1777838054 | 26.67° C | 34% | 1019.4 hPa | 0 mm | - | 890 W/m² | - |
| 1777837751 | 26.67° C | 34% | 1019.5 hPa | 0 mm | - | 888 W/m² | - |
| 1777837448 | 27.22° C | 34% | 1019.4 hPa | 0 mm | - | 919 W/m² | - |
| 1777837143 | 26.67° C | 39% | 1019.6 hPa | 0 mm | - | 910 W/m² | - |
| 1777836839 | 26.67° C | 37% | 1019.7 hPa | 0 mm | - | 915 W/m² | - |
| 1777836534 | 27.22° C | 36% | 1019.7 hPa | 0 mm | - | 925 W/m² | - |
| 1777836230 | 27.22° C | 34% | 1019.9 hPa | 0 mm | - | 698 W/m² | - |
| 1777835927 | 27.22° C | 35% | 1020 hPa | 0 mm | - | 928 W/m² | - |
| 1777835624 | 26.67° C | 36% | 1020 hPa | 0 mm | - | 964 W/m² | - |
| 1777835321 | 26.67° C | 35% | 1020 hPa | 0 mm | - | 934 W/m² | - |
| 1777835018 | 27.22° C | 35% | 1020.2 hPa | 0 mm | - | 932 W/m² | - |
| 1777834715 | 26.67° C | 36% | 1020.2 hPa | 0 mm | - | 941 W/m² | - |
| 1777834412 | 26.11° C | 38% | 1020.4 hPa | 0 mm | - | 931 W/m² | - |
| 1777834111 | 26.67° C | 37% | 1020.3 hPa | 0 mm | - | 939 W/m² | - |
| 1777833807 | 26.11° C | 37% | 1020.4 hPa | 0 mm | - | 945 W/m² | - |
* Rain latest hour (hover to see other rain measurements)
** Current wind speed in m/s (hover to see current wind gust speed)